Wetbulb
57.88 57.10 56.60 56.41 56.49 56.49 56.86 57.10 57.57 59.14 59.34 59.20 59.22 59.39 59.51 59.18 58.65 55.00 48.68 53.79 55.50 65.59 62.38 56.04 55.75 52.89 51.44 50.17 50.95 48.92 41.20 38.96 42.63 43.72 46.48 49.76 46.25 58.23 64.11 66.31 66.78 68.29 66.57 67.06 67.71
57.34 57.23 56.54 56.35 56.19 56.20 56.43 56.72 56.90 56.97 58.63 58.93 58.93 58.71 58.94 58.97 54.23 50.42 58.17 63.26 64.67 65.20 53.67 51.88 50.01 49.84 47.37 50.62 50.68 45.89 40.52 42.76 47.66 47.14 47.61 48.02 46.81 50.18 64.07 64.81 64.63 65.57 67.80 68.18 67.44
57.12 57.14 56.33 56.25 56.08 55.73 55.85 56.04 56.18 56.18 56.58 58.35 57.95 58.08 58.41 58.06 49.30 52.78 68.31 64.47 66.14 67.58 55.21 53.08 51.13 50.69 45.63 47.46 48.92 46.44 44.23 47.91 50.47 49.56 49.91 47.16 47.81 49.99 63.09 62.21 64.60 63.42 65.03 66.51 66.13
56.38 56.42 56.19 55.97 55.77 55.54 55.22 55.34 55.60 55.93 56.11 56.88 57.19 57.64 58.59 54.98 41.14 55.65 69.91 66.15 68.33 58.24 54.05 50.05 48.70 46.87 44.08 45.37 47.76 44.32 49.39 51.25 51.75 52.67 47.31 46.46 46.34 47.70 53.80 56.91 67.45 66.47 67.09 66.16 64.78
55.50 55.85 55.38 55.38 55.31 55.22 54.77 55.14 55.06 55.18 55.45 55.72 55.42 57.86 54.66 49.45 50.77 59.14 69.42 67.75 62.19 55.28 51.14 48.81 48.35 46.48 43.05 44.56 43.68 44.74 48.52 50.92 52.61 50.20 46.54 46.54 45.35 48.58 51.70 61.17 68.39 67.85 67.03 65.60 64.83
54.97 54.85 55.18 54.96 55.00 54.99 54.68 54.74 54.64 54.91 55.11 54.97 56.45 57.86 52.99 45.16 55.22 61.16 61.94 58.58 55.17 51.63 50.48 50.54 51.02 49.21 45.71 45.83 43.31 44.79 46.60 49.60 48.95 49.04 45.15 43.77 44.78 53.75 54.27 61.00 65.97 65.33 63.82 65.05 64.93
54.91 54.30 54.34 54.56 54.83 55.03 55.07 55.28 56.39 56.77 57.07 56.16 57.13 56.69 51.81 48.12 56.86 60.18 56.34 53.55 52.60 52.84 53.36 54.03 54.35 50.58 46.75 43.89 46.60 45.44 42.90 44.23 45.99 45.65 44.97 45.32 42.87 49.94 54.94 59.71 64.02 64.19 64.01 64.86 65.67
54.58 54.03 53.82 54.31 54.37 54.72 55.22 56.30 56.87 57.11 57.03 56.65 57.67 54.51 46.19 56.08 55.02 56.21 54.57 52.89 53.89 53.22 54.30 54.35 52.10 50.12 45.83 45.63 45.24 41.38 40.60 37.56 42.97 46.30 46.48 45.86 39.42 51.13 58.81 62.04 62.09 63.58 63.43 63.21 63.70
54.44 53.90 53.65 53.65 54.27 54.39 54.68 56.03 56.57 56.79 57.48 56.88 53.34 51.50 49.94 61.18 56.71 56.91 56.21 53.18 53.32 53.16 52.73 55.90 49.67 46.30 45.26 40.32 38.07 39.38 37.70 38.77 41.82 45.25 45.05 43.69 45.82 53.09 61.78 61.08 59.69 60.00 60.89 61.72 61.94
54.77 53.94 53.34 53.28 53.80 53.86 54.20 55.63 55.62 55.44 57.56 57.22 56.01 49.90 53.00 55.97 58.04 58.95 57.11 55.54 53.59 52.61 50.35 49.20 45.74 42.38 40.22 37.91 34.12 36.97 38.21 39.43 40.25 44.25 43.37 43.88 48.80 54.83 60.26 59.78 58.33 58.26 58.99 59.76 60.03
54.54 53.94 53.47 53.12 53.43 53.18 52.60 50.56 51.22 49.72 52.67 49.38 50.98 53.45 55.60 59.35 57.24 54.48 58.21 53.93 52.89 49.30 44.47 46.89 42.27 39.65 41.28 41.10 41.60 42.38 42.27 42.77 44.44 44.92 42.58 46.12 49.14 55.51 58.14 57.25 56.20 56.56 56.94 57.85 59.78
54.17 53.96 53.74 53.18 52.93 53.10 50.68 48.57 51.89 54.50 48.47 55.19 55.81 55.83 58.47 58.05 55.03 53.65 55.60 50.23 49.14 44.56 46.18 45.30 41.70 46.23 47.59 47.13 45.51 44.21 43.09 39.89 43.22 46.58 46.67 49.15 48.66 52.65 56.02 55.45 56.50 55.88 55.70 56.62 58.82
53.92 53.61 53.53 53.03 52.46 49.61 48.38 51.59 54.03 55.87 46.74 52.69 55.83 55.38 55.81 56.38 53.54 51.86 53.33 50.96 47.89 45.20 44.88 42.78 47.11 50.42 48.36 46.96 45.54 39.69 40.70 40.14 40.18 43.80 48.14 49.11 46.40 49.12 53.65 55.33 55.94 55.84 56.08 56.66 58.45
53.73 53.45 53.22 52.91 47.99 49.07 50.33 55.61 55.46 55.25 42.89 49.65 53.38 55.94 55.52 54.44 51.32 55.81 54.65 51.52 48.16 45.99 45.08 45.19 49.44 49.68 47.21 46.06 44.86 38.24 42.98 43.06 41.41 39.15 35.26 42.34 36.38 44.65 48.26 49.64 52.11 53.19 53.45 55.36 56.55
53.61 53.57 52.99 52.60 46.36 46.43 54.31 50.50 52.06 54.07 35.36 52.85 54.82 60.49 57.97 52.11 52.15 51.25 54.47 50.94 47.43 47.98 47.55 46.86 48.20 47.44 45.63 44.97 45.52 42.02 43.84 42.20 42.18 38.43 37.08 36.64 33.19 39.27 48.15 46.66 48.67 49.90 52.23 54.46 55.91
53.47 53.38 52.79 49.68 48.45 48.51 51.00 50.04 51.57 44.13 36.96 49.54 54.13 53.46 51.40 52.79 52.86 52.24 51.21 52.33 51.84 48.17 49.20 48.93 54.11 49.13 46.85 46.99 46.82 44.71 41.00 38.75 35.98 33.09 28.64 35.59 35.25 32.88 45.75 48.41 48.40 50.49 51.45 53.58 54.94
53.30 53.02 51.81 52.32 48.04 51.63 50.16 50.02 41.14 37.27 50.33 48.92 50.82 53.25 52.03 49.94 51.48 49.94 48.37 46.48 44.26 40.56 40.57 48.06 48.50 51.44 48.60 43.97 43.75 40.67 35.18 29.02 29.17 28.37 28.93 35.61 33.33 35.35 47.27 51.38 51.16 49.92 50.82 52.48 54.17
51.94 51.28 50.20 50.84 48.99 51.33 50.84 46.12 35.64 45.31 46.62 53.58 52.33 52.48 49.01 51.36 51.20 50.90 48.38 45.41 46.98 45.14 41.12 40.78 40.69 45.95 48.49 44.20 40.16 37.71 36.12 30.38 26.28 25.69 29.74 37.09 35.55 42.20 49.62 52.37 52.63 52.43 51.89 52.86 52.24
50.59 48.53 48.83 50.55 51.20 49.73 48.96 38.83 40.28 45.72 52.00 51.56 51.45 47.64 47.70 50.57 49.33 50.09 48.38 47.22 47.80 47.29 41.96 39.96 40.84 46.36 47.01 45.56 42.98 38.54 34.39 36.15 32.19 30.68 29.65 32.49 43.07 48.51 50.04 49.86 50.97 50.97 51.49 51.63 52.12
47.54 47.92 51.86 53.48 52.71 49.11 44.44 41.07 45.06 51.54 53.74 51.68 45.94 48.81 45.08 46.64 46.41 46.03 46.91 50.61 48.89 49.47 47.60 43.04 37.11 44.10 45.50 45.80 44.30 40.59 41.00 33.35 30.21 26.69 24.89 31.07 37.00 39.91 45.17 47.73 48.99 50.03 49.79 49.87 50.66
45.97 47.98 54.88 55.53 52.25 46.84 38.35 42.00 48.66 53.55 54.09 51.18 48.20 46.70 47.10 46.56 46.45 45.42 46.89 49.00 47.38 44.55 44.60 40.55 37.53 39.49 43.26 39.47 38.97 37.91 35.13 34.89 32.94 30.74 26.55 25.66 30.23 43.60 47.81 49.28 49.47 48.66 50.25 50.54 50.44
44.69 41.93 55.91 54.87 46.92 44.84 42.52 47.90 50.09 51.41 55.05 52.79 52.19 49.96 48.33 48.37 46.11 45.14 46.01 47.56 48.24 46.19 42.44 41.96 36.58 34.28 38.34 43.73 45.32 40.84 37.42 36.02 31.25 30.56 31.34 31.13 32.00 44.31 50.10 50.53 47.34 47.47 51.37 51.83 51.82
42.49 45.70 56.24 55.93 43.55 42.66 46.06 48.79 50.34 50.65 51.67 50.59 49.77 51.66 51.16 47.06 44.14 47.00 47.55 47.98 47.98 46.75 43.86 42.30 34.81 30.28 33.78 37.03 41.80 40.96 43.01 40.42 36.09 33.32 31.25 29.12 31.90 45.29 48.32 48.93 48.70 47.13 49.71 51.67 51.94
45.16 43.57 47.82 50.42 47.25 43.46 42.87 44.82 44.83 49.58 51.18 51.73 50.26 50.23 48.88 44.93 45.45 44.41 46.05 48.07 48.48 48.14 54.41 47.65 37.49 34.07 31.05 34.70 38.47 36.87 39.95 40.32 37.53 30.49 32.34 33.39 35.99 41.48 45.62 46.52 46.17 47.59 48.29 49.20 52.04
47.43 43.20 45.74 40.96 43.47 43.55 43.71 45.84 44.27 43.55 48.40 48.48 45.94 48.38 46.58 40.29 43.06 42.42 46.05 45.95 46.52 51.98 45.90 40.31 35.23 37.77 39.30 42.29 42.16 40.78 41.04 41.21 37.16 38.17 34.66 37.43 37.73 40.79 43.67 47.05 47.74 49.09 47.99 47.11 50.03
44.08 44.61 46.79 44.50 45.10 44.09 43.12 42.97 44.08 44.90 46.24 45.92 44.26 47.82 45.72 41.87 45.20 42.88 45.16 43.89 42.21 43.10 40.96 40.62 36.21 38.33 37.07 42.97 42.65 40.81 42.53 42.21 41.21 40.35 37.70 38.52 37.86 44.44 46.14 45.45 46.85 46.24 48.14 47.64 47.69
46.20 47.78 46.15 44.40 43.26 41.47 42.88 44.76 45.17 45.05 45.86 48.72 47.67 45.14 44.78 46.64 48.88 48.27 47.90 46.21 46.77 42.66 39.51 38.53 37.22 35.03 31.88 41.02 40.83 35.61 39.87 41.08 41.28 41.90 41.39 37.55 40.53 45.11 45.27 46.18 45.99 47.05 47.14 47.34 48.46
MSLP
1016.37 1016.06 1015.75 1015.49 1015.17 1014.95 1014.70 1014.48 1014.26 1014.03 1013.95 1013.97 1013.89 1013.83 1013.58 1013.28 1012.89 1012.75 1011.66 1008.42 1008.38 1008.29 1008.66 1009.00 1009.66 1009.71 1010.07 1010.29 1010.19 1010.44 1011.31 1011.28 1009.99 1008.80 1008.15 1005.88 1005.19 1003.23 1003.11 1004.20 1005.01 1004.94 1005.70 1007.03 1008.76
1016.20 1015.89 1015.56 1015.24 1014.89 1014.72 1014.48 1014.27 1014.11 1014.01 1013.87 1013.83 1013.77 1013.67 1013.43 1013.15 1012.80 1011.08 1006.80 1007.10 1007.35 1007.92 1008.60 1008.75 1009.29 1009.66 1010.04 1009.97 1010.03 1010.33 1010.63 1009.82 1008.69 1008.32 1007.61 1006.27 1005.65 1004.37 1004.38 1004.99 1005.69 1005.95 1006.36 1007.06 1008.50
1016.08 1015.65 1015.25 1014.96 1014.64 1014.55 1014.31 1014.09 1013.97 1013.88 1013.79 1013.55 1013.54 1013.38 1013.12 1013.01 1012.09 1007.85 1005.68 1006.31 1006.95 1007.58 1007.97 1008.22 1008.72 1009.24 1009.77 1009.61 1009.56 1009.52 1009.25 1008.49 1007.82 1007.64 1007.04 1006.29 1005.19 1004.98 1005.26 1005.38 1005.07 1005.88 1006.87 1007.45 1008.43
1015.92 1015.44 1015.01 1014.67 1014.42 1014.32 1014.05 1013.95 1013.81 1013.69 1013.67 1013.45 1013.46 1013.25 1013.03 1012.94 1010.41 1006.09 1005.22 1005.80 1006.74 1007.29 1007.77 1008.10 1008.68 1009.32 1009.31 1009.28 1008.71 1009.10 1008.31 1007.84 1007.24 1006.71 1006.59 1006.18 1005.31 1005.15 1005.05 1005.52 1005.43 1005.61 1006.25 1007.34 1008.18
1015.79 1015.29 1014.86 1014.47 1014.22 1014.01 1013.83 1013.67 1013.57 1013.61 1013.57 1013.35 1013.48 1013.15 1012.85 1012.21 1008.78 1005.71 1005.73 1006.49 1007.07 1007.42 1007.58 1008.08 1008.49 1008.84 1008.83 1008.40 1008.41 1008.50 1007.54 1006.94 1006.30 1006.20 1006.24 1005.87 1005.43 1005.72 1005.57 1005.48 1006.15 1006.54 1006.85 1007.48 1008.10
1015.62 1015.17 1014.70 1014.34 1014.03 1013.75 1013.57 1013.46 1013.43 1013.42 1013.37 1013.28 1013.22 1013.01 1012.59 1010.71 1005.79 1005.25 1005.78 1006.65 1006.76 1007.26 1007.41 1007.60 1007.29 1007.63 1007.82 1007.91 1008.04 1007.18 1007.12 1006.68 1006.33 1005.82 1005.75 1005.81 1005.68 1005.62 1006.39 1006.09 1006.89 1007.63 1007.89 1008.15 1008.64
1015.40 1014.99 1014.60 1014.20 1013.83 1013.50 1013.24 1013.07 1012.97 1013.01 1012.97 1012.99 1012.89 1012.63 1011.71 1007.69 1005.33 1005.42 1005.61 1006.03 1006.12 1006.31 1006.57 1006.44 1006.61 1007.30 1007.22 1007.49 1006.59 1006.66 1007.19 1006.34 1005.83 1005.55 1005.63 1005.32 1005.91 1006.40 1006.50 1006.93 1008.16 1008.89 1009.16 1009.31 1009.77
1015.25 1014.80 1014.36 1013.93 1013.53 1013.16 1012.88 1012.68 1012.58 1012.58 1012.57 1012.66 1012.63 1012.35 1009.88 1005.64 1005.29 1005.83 1005.72 1005.85 1005.81 1006.02 1005.68 1005.53 1006.30 1006.96 1007.31 1006.61 1006.42 1006.61 1006.77 1006.30 1005.28 1005.13 1005.05 1005.52 1006.48 1006.94 1007.47 1007.84 1009.34 1009.76 1009.93 1010.20 1011.02
1015.09 1014.57 1014.07 1013.61 1013.16 1012.83 1012.52 1012.36 1012.23 1012.17 1012.16 1012.37 1012.49 1011.78 1007.89 1005.15 1005.18 1004.39 1004.89 1005.03 1005.09 1005.55 1005.46 1005.35 1006.02 1006.30 1006.32 1006.84 1007.18 1007.15 1006.85 1006.24 1005.71 1004.91 1005.29 1005.93 1007.17 1007.72 1008.03 1008.43 1009.96 1010.54 1010.68 1011.05 1011.65
1014.86 1014.37 1013.86 1013.41 1012.97 1012.62 1012.15 1011.84 1011.85 1011.94 1011.93 1012.12 1011.53 1011.03 1006.61 1004.07 1003.53 1003.71 1003.82 1004.61 1004.72 1005.21 1005.79 1005.96 1005.82 1006.19 1006.75 1007.49 1007.70 1007.34 1007.01 1006.17 1005.47 1004.89 1005.51 1006.49 1007.22 1008.27 1008.58 1008.80 1010.27 1010.95 1011.36 1011.77 1012.39
1014.59 1014.02 1013.51 1013.10 1012.68 1012.39 1011.94 1011.63 1011.96 1011.56 1010.79 1008.81 1007.75 1006.32 1004.48 1003.34 1002.78 1003.25 1003.28 1004.33 1004.48 1005.23 1005.78 1005.59 1006.23 1006.45 1006.54 1006.67 1006.88 1006.95 1006.67 1005.97 1004.33 1004.33 1005.30 1006.55 1007.71 1008.61 1009.23 1009.60 1010.75 1011.50 1011.91 1012.49 1013.03
1014.33 1013.70 1013.12 1012.66 1012.32 1012.17 1012.20 1011.03 1008.05 1007.36 1007.40 1006.13 1005.60 1005.05 1003.43 1003.34 1003.14 1002.69 1002.75 1003.99 1004.34 1004.99 1005.44 1006.09 1005.96 1005.53 1005.87 1005.94 1006.33 1006.71 1006.03 1005.47 1004.55 1004.74 1004.96 1006.91 1008.35 1009.29 1009.95 1010.40 1010.79 1011.48 1012.22 1012.75 1013.58
1014.01 1013.31 1012.70 1012.21 1011.85 1011.85 1010.96 1008.15 1006.87 1006.73 1006.82 1004.01 1003.55 1003.38 1002.71 1002.61 1002.48 1002.16 1002.40 1003.16 1003.93 1004.67 1005.19 1005.61 1004.36 1004.36 1005.02 1005.34 1005.65 1005.95 1005.90 1006.10 1006.26 1005.92 1006.48 1007.68 1009.42 1010.29 1011.06 1011.02 1011.67 1012.12 1012.37 1012.92 1013.54
1013.51 1012.82 1012.29 1011.70 1011.85 1010.67 1009.17 1006.02 1006.72 1006.72 1006.46 1003.49 1001.81 1000.86 1001.13 1001.23 1001.59 1001.14 1001.61 1002.81 1003.49 1004.06 1004.79 1004.97 1003.82 1004.03 1003.61 1004.01 1004.52 1005.72 1006.36 1006.49 1006.93 1007.64 1008.54 1008.89 1010.63 1011.31 1011.88 1011.99 1012.28 1012.58 1012.89 1013.44 1014.16
1012.87 1012.27 1011.86 1011.77 1011.35 1010.02 1006.47 1005.50 1006.00 1006.38 1005.60 1002.31 1000.59 999.10 999.72 1000.91 1000.77 1000.99 1001.08 1002.27 1003.08 1003.52 1004.16 1003.92 1003.20 1003.32 1003.30 1003.79 1004.25 1005.75 1006.08 1007.02 1008.08 1009.15 1009.73 1009.99 1011.04 1011.26 1012.34 1012.69 1012.53 1012.60 1012.98 1013.76 1014.55
1011.87 1011.47 1011.20 1010.74 1010.83 1007.13 1006.38 1005.94 1006.08 1006.65 1004.82 1002.15 1000.43 999.79 1000.14 1000.50 1000.71 1000.72 1001.47 1001.87 1001.98 1003.13 1003.52 1003.35 1002.69 1002.97 1003.03 1003.67 1004.29 1005.37 1006.59 1007.97 1009.37 1010.61 1011.55 1010.78 1011.03 1011.62 1011.68 1010.93 1012.27 1012.67 1013.23 1014.05 1014.76
1010.48 1010.01 1010.29 1009.31 1007.70 1005.89 1005.95 1006.16 1006.71 1006.00 1003.76 1002.74 1001.81 1001.22 1000.81 1000.69 1000.75 1001.19 1001.79 1002.46 1002.78 1003.35 1003.50 1003.34 1003.28 1002.87 1003.13 1004.17 1005.00 1006.11 1008.45 1010.30 1011.37 1011.97 1012.18 1011.17 1011.38 1010.13 1010.07 1010.13 1010.38 1011.96 1013.22 1014.15 1014.86
1009.35 1007.81 1007.21 1007.08 1006.09 1005.80 1005.76 1006.66 1006.86 1005.20 1004.08 1003.22 1002.61 1001.88 1002.01 1001.97 1001.55 1001.23 1001.97 1002.63 1002.83 1003.15 1004.19 1004.04 1003.96 1003.48 1003.14 1003.88 1005.32 1006.85 1008.55 1010.78 1012.10 1012.91 1012.64 1011.36 1011.18 1010.19 1009.50 1009.50 1011.07 1011.88 1012.93 1014.15 1015.00
1008.57 1007.17 1006.90 1004.72 1005.75 1006.17 1006.09 1006.68 1005.86 1004.67 1003.78 1003.26 1002.85 1002.75 1002.50 1002.60 1002.58 1002.00 1002.86 1003.35 1002.29 1002.73 1003.84 1004.41 1004.44 1003.95 1003.75 1004.22 1005.22 1007.11 1008.61 1009.83 1011.74 1012.92 1013.16 1012.40 1011.55 1010.93 1010.83 1010.75 1011.52 1012.65 1013.59 1014.26 1015.02
1009.52 1007.72 1005.37 1003.74 1004.58 1005.62 1006.43 1006.26 1005.23 1004.01 1003.66 1003.84 1004.13 1004.32 1003.96 1004.32 1003.17 1002.45 1003.10 1003.57 1002.59 1002.00 1002.43 1004.17 1005.26 1004.77 1004.69 1004.60 1005.43 1006.44 1007.97 1010.06 1012.13 1013.45 1013.79 1012.85 1011.98 1011.47 1011.57 1011.25 1011.58 1012.31 1013.00 1013.93 1014.94
1009.78 1007.62 1003.65 1003.10 1003.91 1005.47 1006.34 1005.82 1004.53 1003.50 1002.93 1003.60 1004.37 1004.72 1005.25 1004.90 1004.00 1003.36 1003.27 1002.43 1001.57 1002.32 1002.64 1004.27 1005.40 1006.16 1005.60 1005.99 1006.41 1007.46 1008.42 1010.19 1012.08 1013.20 1013.89 1013.35 1011.89 1010.30 1010.46 1010.59 1011.10 1012.23 1013.15 1013.88 1014.48
1011.05 1008.17 1004.08 1003.25 1004.75 1005.81 1005.85 1004.77 1003.69 1003.13 1002.71 1003.31 1004.17 1004.78 1004.74 1004.42 1004.30 1003.65 1002.77 1002.12 1001.74 1002.22 1003.82 1005.00 1006.33 1007.39 1007.14 1006.62 1006.63 1007.33 1008.29 1009.67 1011.85 1013.37 1013.57 1013.04 1011.51 1009.71 1009.90 1010.33 1010.95 1011.82 1012.33 1012.77 1013.32
1011.81 1008.51 1004.41 1004.40 1005.57 1006.11 1005.36 1004.23 1003.24 1003.02 1002.77 1003.07 1003.71 1004.09 1004.28 1003.98 1003.86 1003.98 1003.66 1002.41 1002.50 1003.31 1004.26 1005.34 1007.48 1008.46 1008.23 1007.74 1007.33 1007.90 1008.48 1009.60 1010.91 1012.10 1012.89 1013.05 1011.61 1009.93 1009.95 1010.33 1010.38 1010.95 1011.73 1012.32 1013.00
1012.03 1009.52 1007.46 1006.57 1006.60 1006.45 1006.05 1004.75 1003.82 1003.01 1002.98 1002.93 1003.41 1003.72 1004.81 1004.41 1003.48 1003.29 1003.34 1003.64 1003.51 1003.65 1004.29 1005.05 1007.30 1008.38 1008.67 1008.47 1008.40 1008.59 1008.91 1009.48 1010.64 1012.27 1012.33 1012.23 1011.57 1010.83 1010.50 1010.32 1010.51 1010.59 1010.69 1011.25 1011.83
1011.59 1010.61 1009.88 1009.08 1007.72 1007.07 1006.31 1005.00 1004.09 1003.54 1003.42 1003.66 1003.77 1004.12 1004.40 1004.61 1004.12 1003.72 1003.48 1003.85 1004.21 1004.73 1005.17 1006.09 1007.99 1008.58 1008.69 1008.44 1008.46 1008.87 1009.23 1009.63 1010.57 1011.28 1012.09 1011.92 1012.08 1012.49 1011.78 1010.40 1009.75 1009.33 1009.66 1010.28 1010.93
1012.69 1012.28 1011.00 1009.80 1008.58 1007.45 1006.26 1005.50 1004.62 1004.05 1003.92 1004.32 1004.37 1004.42 1004.26 1004.58 1004.82 1004.55 1004.10 1004.03 1004.79 1005.28 1006.12 1007.08 1008.41 1008.78 1009.21 1008.92 1009.01 1009.27 1009.53 1010.15 1010.87 1011.80 1012.12 1012.31 1013.09 1013.39 1012.78 1011.75 1011.17 1011.12 1009.66 1009.60 1009.74
1013.95 1013.10 1012.52 1010.63 1009.38 1008.23 1007.23 1006.05 1005.42 1004.64 1004.44 1004.33 1004.49 1004.63 1004.77 1004.87 1004.68 1004.63 1004.35 1004.19 1004.97 1005.90 1006.93 1007.93 1008.88 1009.81 1010.30 1009.76 1010.10 1010.76 1011.35 1011.45 1012.71 1013.65 1013.92 1014.40 1014.83 1014.47 1014.00 1013.08 1012.64 1012.50 1012.38 1010.83 1009.22
Wind_Speed
15 15 14 14 13 14 13 13 13 11 11 11 10 10 10 11 11 2 9 15 12 9 5 5 2 4 3 3 4 4 3 4 8 1 7 11 10 8 8 20 7 2 11 19 22
16 15 14 14 13 13 13 13 12 12 11 10 9 9 9 9 3 10 16 13 17 16 5 7 6 6 3 5 3 5 5 9 6 2 7 10 5 7 4 10 8 11 14 18 25
16 16 15 14 13 13 13 12 12 12 11 9 9 9 8 6 5 10 2 20 16 15 8 7 3 6 4 2 5 4 7 7 10 5 6 6 9 3 7 6 17 19 19 17 21
17 16 16 15 14 13 12 12 11 11 11 9 9 8 7 2 6 4 9 19 14 9 6 4 3 6 5 6 6 4 10 15 11 11 4 6 4 6 6 8 12 23 22 16 15
18 17 16 15 14 13 12 12 11 10 10 7 9 7 1 0 14 3 12 11 7 7 8 6 5 7 5 6 1 6 13 9 15 10 7 5 3 6 4 9 14 18 19 17 15
18 18 17 15 14 13 12 11 10 10 9 8 7 6 1 5 8 8 12 9 6 8 7 8 9 9 4 7 7 6 11 15 9 14 5 4 3 9 5 14 14 10 7 6 8
19 18 17 16 15 14 13 12 9 9 8 7 6 3 3 19 1 7 11 9 6 12 8 8 7 4 3 5 10 6 7 8 11 8 8 6 4 7 6 15 17 15 14 16 14
19 19 18 17 15 14 13 11 9 8 7 5 5 3 10 5 6 5 4 5 7 9 6 7 6 7 5 5 7 2 4 4 7 7 5 11 8 6 7 20 15 16 15 17 15
20 19 19 18 16 15 15 12 11 8 6 5 3 3 13 0 7 15 9 8 8 7 7 10 2 8 3 3 6 5 3 3 7 7 4 5 6 6 11 19 13 10 12 14 13
21 20 19 18 16 14 16 14 5 2 4 6 6 3 6 6 6 8 11 12 6 5 6 5 3 3 4 5 6 4 3 6 8 9 7 5 7 10 11 18 13 11 11 13 12
23 22 20 17 15 12 8 3 2 1 4 13 8 7 7 5 0 7 10 8 5 4 7 1 3 6 11 7 5 5 7 15 13 6 7 9 8 13 9 16 13 10 11 11 11
25 23 21 18 14 9 3 4 7 1 9 18 16 14 11 5 4 7 10 7 6 8 3 5 8 12 7 8 8 7 6 8 6 8 9 9 7 6 7 8 12 15 10 11 10
25 24 21 18 15 5 5 13 6 12 3 10 10 10 10 11 10 12 12 8 4 5 6 8 14 11 11 12 8 3 6 5 4 5 8 7 5 5 4 9 9 8 8 9 10
24 25 21 20 4 3 7 5 6 9 2 8 5 8 6 7 6 15 13 8 4 9 4 7 15 10 6 3 5 4 5 6 7 6 2 2 4 1 1 6 9 11 9 9 10
25 25 19 9 7 4 6 6 5 4 3 6 5 6 7 7 5 6 11 5 11 9 4 9 4 6 4 6 5 4 3 6 5 4 2 1 6 7 6 7 11 9 11 11 9
27 24 18 4 6 11 10 9 4 6 6 5 3 6 5 7 10 11 7 1 5 6 5 10 3 4 7 4 7 5 7 10 6 5 2 6 4 4 11 15 11 10 10 12 11
32 26 10 4 7 3 6 3 6 3 5 5 5 6 4 5 10 8 10 8 7 4 3 1 9 7 4 7 4 9 8 5 5 5 6 5 3 10 17 14 18 17 14 12 11
35 32 6 11 5 5 3 6 3 6 7 3 4 5 3 7 7 19 10 12 5 5 3 3 0 3 2 7 8 5 9 7 5 3 5 7 5 7 10 12 14 15 15 11 11
33 2 2 6 13 3 7 4 8 5 3 3 5 5 5 11 12 5 5 8 9 8 8 5 3 1 6 4 7 2 3 6 6 1 3 3 2 3 7 13 12 14 13 13 12
7 5 5 8 13 4 7 5 4 2 1 4 4 2 14 8 9 7 11 24 16 7 8 7 5 1 2 6 4 6 5 3 4 4 4 4 4 6 5 12 12 19 18 14 11
2 5 4 12 4 7 5 8 7 8 7 7 4 2 6 2 8 4 14 14 2 4 9 5 6 4 5 3 7 4 1 5 6 6 6 2 7 6 17 18 15 13 12 15 13
5 4 3 1 4 1 3 5 8 5 4 5 4 5 11 7 5 7 7 2 6 3 6 2 6 5 4 2 4 5 8 6 7 5 2 5 8 6 14 14 9 15 19 17 16
4 5 6 3 3 3 6 4 4 3 2 5 6 8 9 9 7 10 13 3 4 4 8 5 2 3 8 8 7 6 3 5 5 4 5 6 7 4 6 13 10 15 15 16 14
3 5 5 6 2 2 4 4 3 2 3 3 5 5 1 6 5 5 12 10 3 5 7 9 4 8 8 6 3 1 4 2 6 5 5 7 5 3 5 10 9 15 16 17 17
0 3 2 3 5 4 3 4 3 4 4 5 3 4 4 3 8 3 3 3 7 4 5 6 5 3 4 1 2 4 2 6 3 6 5 7 8 6 11 10 18 20 16 16 18
4 5 6 4 6 6 4 3 4 4 5 2 5 2 5 3 1 3 3 4 2 1 3 2 4 4 1 3 3 4 6 7 6 5 1 4 5 4 10 7 8 12 15 20 19
4 4 0 5 7 5 6 3 7 5 4 7 4 3 5 3 4 5 4 1 6 6 3 4 7 4 5 3 2 4 2 4 6 6 1 4 4 10 6 12 14 15 17 14 19
Wind_Direction
329 327 321 316 312 305 299 295 295 300 301 304 310 312 311 314 309 156 237 215 194 176 126 128 216 210 126 235 195 138 66 231 242 91 254 305 350 343 53 121 117 170 138 154 143
330 326 322 317 313 307 302 298 295 296 300 301 306 310 315 321 264 246 239 207 204 164 167 170 197 141 165 208 214 135 167 231 184 257 291 298 344 322 75 116 108 95 121 145 131
329 325 326 320 317 309 304 300 298 299 300 310 311 317 321 315 315 249 353 193 201 182 184 172 128 140 188 166 210 200 221 245 275 262 246 284 326 19 109 120 152 147 141 153 144
333 330 328 323 318 309 306 301 298 300 299 308 312 310 315 286 272 274 352 170 168 164 123 161 129 149 203 205 202 223 228 236 262 255 277 274 283 24 93 197 161 150 158 155 157
336 333 329 326 319 312 308 303 300 297 295 306 300 307 62 79 251 238 100 146 122 138 176 174 161 169 188 202 89 200 248 244 245 257 237 283 255 140 90 128 146 152 155 161 165
338 336 330 326 320 314 308 302 293 286 287 292 287 302 171 260 241 187 132 141 173 162 185 167 203 194 211 211 167 213 229 250 256 250 243 231 178 109 279 128 126 114 119 127 159
340 337 332 326 321 317 310 302 280 269 270 270 270 262 256 237 205 143 146 181 180 185 177 202 203 135 163 277 241 250 267 272 246 224 227 162 286 137 182 88 96 93 84 74 72
341 338 334 329 325 321 315 303 289 278 270 249 242 233 247 259 214 202 190 219 202 218 243 196 149 198 183 234 343 357 154 187 273 166 236 129 240 159 113 100 100 102 92 83 69
344 339 335 331 327 322 314 299 285 281 239 191 177 208 264 29 179 225 175 217 191 223 255 260 232 186 53 62 2 5 248 242 294 211 129 112 149 118 122 105 102 96 91 86 76
339 340 335 329 325 321 310 287 264 336 158 177 259 291 267 250 168 190 189 210 179 206 297 224 60 56 34 84 218 237 278 268 228 239 148 131 157 130 135 114 119 107 98 88 79
338 335 333 329 325 323 335 60 70 167 244 195 197 221 300 251 205 181 191 184 205 156 181 253 105 212 226 208 209 241 287 255 238 217 115 169 138 151 137 111 113 111 106 98 92
335 332 330 327 321 314 300 211 206 156 295 224 226 254 268 50 297 231 141 157 155 207 139 22 237 228 230 235 234 269 235 352 357 18 88 144 146 123 125 120 133 131 124 118 107
331 329 327 323 316 278 218 229 93 28 278 284 191 213 231 154 212 218 156 188 181 199 184 178 239 220 218 238 184 92 83 36 43 345 53 98 32 124 104 115 119 113 118 108 114
326 328 324 323 297 259 241 267 210 186 20 272 201 252 179 188 215 192 188 149 185 222 176 216 254 235 129 74 113 87 127 81 49 64 176 100 223 147 199 111 124 133 127 118 102
321 323 319 309 303 234 235 340 74 61 333 252 239 204 190 154 167 212 179 110 220 238 130 244 355 175 128 159 111 152 100 102 127 88 27 11 102 254 143 164 172 164 140 121 119
316 319 316 247 221 243 321 317 70 54 255 284 250 194 136 198 216 177 171 208 222 205 218 206 222 217 154 129 113 124 50 30 57 106 81 247 139 262 191 197 171 174 137 133 128
317 311 274 222 221 145 217 48 47 164 280 342 352 2 5 188 205 150 191 202 212 130 300 19 147 276 133 102 31 76 58 1 0 14 212 252 100 229 216 191 175 158 150 146 134
321 311 219 207 228 298 65 63 152 252 263 235 2 5 17 19 290 176 209 217 240 124 115 145 38 195 205 152 161 164 140 151 199 201 259 310 266 286 304 146 145 151 149 147 133
320 318 190 241 203 301 83 102 192 217 270 344 355 19 300 359 343 90 50 289 227 165 150 140 202 51 81 114 124 162 95 178 118 24 74 259 305 347 14 113 134 145 151 159 158
314 318 261 122 147 98 78 211 224 281 70 58 161 231 236 352 337 26 113 267 254 184 141 184 112 74 169 60 32 125 161 45 12 155 201 282 246 213 219 168 153 163 171 164 162
313 343 293 137 107 54 159 216 222 253 250 148 141 216 211 162 271 275 172 263 127 100 94 122 104 272 80 163 175 31 27 75 118 135 161 220 266 218 192 188 180 168 164 170 177
338 337 315 169 77 142 179 206 222 291 87 104 121 152 305 176 312 343 335 328 102 139 89 79 121 130 203 295 196 174 199 133 126 235 175 159 268 291 190 186 148 165 183 186 183
293 266 318 89 64 346 306 295 206 149 165 135 166 168 220 275 245 229 281 329 104 93 156 181 42 61 350 355 4 58 93 117 99 69 195 142 262 346 164 169 189 171 179 184 181
292 336 338 33 346 82 6 287 358 304 161 130 149 127 35 304 261 168 152 205 176 132 107 93 120 147 183 193 165 179 322 299 148 131 204 200 226 253 189 177 180 189 183 183 181
226 325 18 343 327 327 207 257 311 337 75 30 42 107 130 6 334 15 61 112 14 10 66 99 127 131 158 207 184 181 271 313 217 224 174 234 195 7 321 206 190 191 195 186 187
27 8 340 293 297 317 351 335 72 12 95 31 85 43 99 97 235 344 342 74 188 310 72 4 181 129 147 234 255 306 298 287 289 357 323 68 109 45 292 7 12 289 211 195 191
323 332 25 288 327 14 334 359 18 27 358 155 170 103 80 183 227 240 237 121 148 146 135 132 127 97 239 206 336 330 72 67 111 47 325 73 338 330 316 43 34 18 356 257 203